Regional Weather Roundup
Issued by NWS

Home | Current Version | Previous Version | Text Only | Print | Product List | Glossary On
Versions: 1 2 3 4 5 6 7 8 9 10 11 12 13 14 15 16 17 18 19 20 21 22 23 24 25 26 27 28 29 30 31 32 33 34 35 36 37 38 39 40 41 42 43 44 45 46 47 48 49 50
000
ASUS45 KBOI 290810
RWRID

IDAHO REGIONAL WEATHER ROUNDUP
NATIONAL WEATHER SERVICE BOISE ID
200 AM MDT SAT APR 29 2017

NOTE: "FAIR" INDICATES FEW OR NO CLOUDS BELOW 12000 FEET
WITH NO SIGNIFICANT WEATHER AND/OR OBSTRUCTIONS TO VISIBILITY

IDZ012-014-290900-
SOUTHWEST IDAHO


CITY           SKY/WX    TMP DP  RH WIND       PRES   REMARKS
BOISE          CLEAR     41  30  65 W5        30.17R
CALDWELL       CLEAR     42  33  70 W10       30.20R
MOUNTAIN HOME  CLEAR     39  32  75 NW13      30.16R WCI  32
$$

IDZ016-017-290900-
SOUTHCENTRAL IDAHO


CITY           SKY/WX    TMP DP  RH WIND       PRES   REMARKS
BURLEY         CLEAR     40  27  59 W14G24    30.13R WCI  32
JEROME         CLEAR     36  29  75 S6        30.15R WCI  31
TWIN FALLS     CLEAR     37  28  70 SW9       30.16R WCI  30
$$

IDZ019>023-290900-
SOUTHEAST IDAHO


CITY           SKY/WX    TMP DP  RH WIND       PRES   REMARKS
IDAHO FALLS    CLOUDY    31  27  85 N3        30.13R
POCATELLO      CLOUDY    35  28  75 E3        30.12R
REXBURG        CLOUDY    34  27  75 NE6       30.13R WCI  29
$$

IDZ006-010-011-018-031-032-290900-
CENTRAL IDAHO MOUNTAINS


CITY           SKY/WX    TMP DP  RH WIND       PRES   REMARKS
MCCALL         CLEAR     33  21  61 N8        30.19S WCI  26
HAILEY         CLEAR     34  23  64 NW7       30.16R WCI  28
STANLEY          N/A     23  17  78 CALM      30.19R
SALMON         CLEAR     34  27  75 CALM      30.20S
CHALLIS        CLEAR     32  20  61 MISG      30.18R
$$

IDZ002-004-006-007-026-290900-
NORTHERN IDAHO


CITY           SKY/WX    TMP DP  RH WIND       PRES   REMARKS
LEWISTON       CLEAR     44  37  76 SE5       30.25R
LOWELL           N/A     39  36  89 S5        30.33R
COEUR D`ALENE  CLOUDY    45  38  76 S12       30.22S
MULLAN PASS    LGT SNOW  30  30 100 VRB6      30.19S VSB 1   WCI  24
$$



USA.gov is the U.S. government's official web portal to all federal, state and local government web resources and services.